Flight Information

DEPARTURE
PASCO, WA
Elevation:
410
Runways:
12/30 - 7704x150 - ASPH-G
3R/21L - 4423x75 - ASPH-F
3L/21R - 7707x150 - ASPH-G
ATIS:
125.65
Clearance Delivery:
120
Ground:
121.8
Tower:
TRI-CITIES TOWER 135.3
DESTINATION
,
Elevation:
TPA:
1000 (est.)


6579.3 NM68° True-19° Var49° HDG

Flight Plan:
(click to file on line)

1. Type
2. Aircraft Identification
3. Aircraft Type / Special Equipment
4. True Airspeed
kts
5. Departure Airport
(ICAO code)
6. Arriving Airport
(ICAO code)
7. Cruising Altitude
ft
8. Alternate Airport
(ICAO code)
9. Route of Flight
10. Remarks


00:00:00 Departure ATIS: Destination ATIS:

Clearance Limit:
Route:
Altitude: Expect in minutes
Frequency:
Transponder: (7500 Hijack / 7600 Lost Comms / 7700 Emergency)


KPSC 261353Z 00000KT 10SM CLR 17/07 A3015 RMK AO2 SLP207 T01670072
Time: 2022-06-26T13:53:00Z
1656252579
Winds: calm
Visibility: 10.0 sm
Clouds (AGL): CLR
Temperature: 16.7 C
Dew Point: 7.2 C
Pressure: 30.15059 in Hgbr


Notes:

Data extracted from FAA Digital Chart Supplement. Effective: 0901Z Thursday, 27 JAN 2022 to 0900z Thursday, 24 MAR 2022
Current ATIS data is provided courtisy of PilotEdge.